DAL729 KGRR-TNCM

Flight info

Callsign DAL729
Flight time 4h 27m
Altitude 33000
Route DCT TAADD DCT HVQ DCT ASHEL DCT PRTHR/N0465F320 Y327 CLOWR DCT ZQA/N0465F330 DCT CERDA Y439 FIPEK Y355 SLUGO DCT
Aircraft A321/M-SDE3FGHIRWY/LB1

Departure

Time 2026-04-30 15:04
Airport Gerald R. Ford International Airport (KGRR)

Arrival

Time 2026-04-30 19:31
Airport Princess Juliana International Airport (TNCM)
Time Latitude Longitude Altitude Speed Heading
2026-04-30 14:39 42.88115 -85.52929 802 ft 0 kts 35°
2026-04-30 14:55 42.88079 -85.52965 802 ft 4 kts 53°
2026-04-30 14:56 42.88078 -85.53014 802 ft 1 kts 124°
2026-04-30 14:56 42.88079 -85.53017 802 ft 0 kts 124°
2026-04-30 14:58 42.88019 -85.52994 801 ft 16 kts 185°
2026-04-30 14:59 42.88007 -85.52774 803 ft 14 kts 83°
2026-04-30 15:00 42.88074 -85.52185 798 ft 28 kts 77°
2026-04-30 15:00 42.88142 -85.51585 800 ft 36 kts 81°
2026-04-30 15:01 42.88200 -85.51044 799 ft 21 kts 82°
2026-04-30 15:01 42.88221 -85.50860 798 ft 19 kts 81°
2026-04-30 15:01 42.88209 -85.50587 801 ft 11 kts 156°
2026-04-30 15:02 42.88150 -85.50572 803 ft 6 kts 171°
2026-04-30 15:02 42.88120 -85.50567 803 ft 3 kts 175°
2026-04-30 15:03 42.88107 -85.50568 803 ft 0 kts 184°
2026-04-30 15:03 42.88072 -85.50655 803 ft 8 kts 251°
2026-04-30 15:04 42.87951 -85.51678 796 ft 124 kts 261°
2026-04-30 15:04 42.87208 -85.56417 2431 ft 177 kts 243°
2026-04-30 15:05 42.83372 -85.57464 3474 ft 234 kts 161°
2026-04-30 15:06 42.80074 -85.55631 3877 ft 276 kts 157°
2026-04-30 15:06 42.76469 -85.53535 5147 ft 286 kts 159°
2026-04-30 15:07 42.72754 -85.51449 6553 ft 291 kts 160°
2026-04-30 15:07 42.68951 -85.49358 7812 ft 298 kts 161°
2026-04-30 15:08 42.65045 -85.47231 9036 ft 307 kts 161°
2026-04-30 15:08 42.58913 -85.43888 10323 ft 338 kts 161°
2026-04-30 15:09 42.54313 -85.41401 10591 ft 374 kts 161°
2026-04-30 15:09 42.49267 -85.38663 11024 ft 401 kts 160°
2026-04-30 15:10 42.44033 -85.35812 12060 ft 409 kts 161°
2026-04-30 15:11 42.33345 -85.30026 14085 ft 421 kts 161°
2026-04-30 15:11 42.27871 -85.27070 14987 ft 426 kts 161°
2026-04-30 15:12 42.19550 -85.22599 16331 ft 433 kts 162°
2026-04-30 15:13 42.13924 -85.19575 17198 ft 438 kts 162°
2026-04-30 15:14 42.02532 -85.13475 18754 ft 448 kts 162°
2026-04-30 15:14 41.93779 -85.08809 19833 ft 454 kts 163°
2026-04-30 15:16 41.78931 -85.00911 21570 ft 464 kts 163°
2026-04-30 15:17 41.66814 -84.94498 22922 ft 472 kts 164°
2026-04-30 15:18 41.51339 -84.86364 24290 ft 483 kts 164°
2026-04-30 15:19 41.41965 -84.81440 24977 ft 488 kts 165°
2026-04-30 17:39 24.75274 -76.45927 33019 ft 491 kts 105°
2026-04-30 17:42 24.65143 -76.09983 33007 ft 493 kts 105°
2026-04-30 17:43 24.60043 -75.92002 33012 ft 495 kts 105°
2026-04-30 17:44 24.53873 -75.70362 33029 ft 495 kts 105°
2026-04-30 17:47 24.44570 -75.38026 33031 ft 493 kts 104°
2026-04-30 17:48 24.37322 -75.13023 33031 ft 491 kts 105°
2026-04-30 17:50 24.29035 -74.84640 33024 ft 488 kts 105°
2026-04-30 17:52 24.22813 -74.63438 33036 ft 487 kts 105°
2026-04-30 17:54 24.13451 -74.31807 33055 ft 483 kts 105°
2026-04-30 17:56 24.05167 -74.04033 33033 ft 478 kts 105°
2026-04-30 17:58 23.98953 -73.83363 33035 ft 475 kts 105°
2026-04-30 18:00 23.90679 -73.55950 33042 ft 474 kts 105°
2026-04-30 18:01 23.85484 -73.38897 33037 ft 473 kts 105°
2026-04-30 18:02 23.79278 -73.18524 33026 ft 472 kts 107°
2026-04-30 18:04 23.73016 -72.98126 33024 ft 473 kts 107°
2026-04-30 18:06 23.64608 -72.70935 33022 ft 473 kts 108°
2026-04-30 18:08 23.57582 -72.48307 33031 ft 473 kts 109°
2026-04-30 18:10 23.49115 -72.21205 33027 ft 472 kts 109°
2026-04-30 18:11 23.41660 -71.97543 33023 ft 471 kts 109°
2026-04-30 18:13 23.36346 -71.80713 33016 ft 471 kts 109°
2026-04-30 18:14 23.30984 -71.63861 33012 ft 472 kts 109°
2026-04-30 18:15 23.24540 -71.43633 33005 ft 472 kts 109°
2026-04-30 18:16 23.20211 -71.30173 33020 ft 471 kts 109°
2026-04-30 18:17 23.18055 -71.23441 33018 ft 471 kts 109°
2026-04-30 18:18 23.14808 -71.13358 33013 ft 471 kts 109°
2026-04-30 18:18 23.12643 -71.06643 33011 ft 471 kts 109°
2026-04-30 18:19 23.10477 -70.99924 33011 ft 471 kts 109°
2026-04-30 18:19 23.08305 -70.93212 33010 ft 471 kts 109°
2026-04-30 18:20 23.06147 -70.86547 33010 ft 471 kts 109°
2026-04-30 18:20 23.03962 -70.79839 33007 ft 471 kts 110°
2026-04-30 18:21 23.01776 -70.73126 33006 ft 472 kts 110°
2026-04-30 18:21 22.99591 -70.66402 33007 ft 472 kts 110°
2026-04-30 18:22 22.97399 -70.59686 33007 ft 472 kts 110°
2026-04-30 18:22 22.94106 -70.49602 33006 ft 473 kts 110°
2026-04-30 18:23 22.91905 -70.42876 33006 ft 473 kts 110°
2026-04-30 18:23 22.89698 -70.36152 33007 ft 474 kts 110°
2026-04-30 18:24 22.86372 -70.26054 33007 ft 474 kts 110°
2026-04-30 18:25 22.84152 -70.19323 33009 ft 474 kts 110°
2026-04-30 18:25 22.80811 -70.09209 33003 ft 475 kts 110°
2026-04-30 18:26 22.77469 -69.99090 33007 ft 476 kts 110°
2026-04-30 18:27 22.73302 -69.89415 32990 ft 473 kts 128°
2026-04-30 18:28 22.66395 -69.81832 32991 ft 473 kts 138°
2026-04-30 18:28 22.59262 -69.74435 32994 ft 474 kts 137°
2026-04-30 18:29 22.49744 -69.64566 32997 ft 474 kts 138°
2026-04-30 18:30 22.40217 -69.54737 32984 ft 475 kts 139°
2026-04-30 18:31 22.33024 -69.47324 32978 ft 478 kts 139°
2026-04-30 18:32 22.25778 -69.39862 32991 ft 481 kts 139°
2026-04-30 18:33 22.18492 -69.32380 33001 ft 482 kts 139°
2026-04-30 18:33 22.11185 -69.24892 32997 ft 483 kts 139°
2026-04-30 18:34 22.03868 -69.17407 32980 ft 484 kts 140°
2026-04-30 18:35 21.98982 -69.12404 32984 ft 486 kts 140°
2026-04-30 18:35 21.94072 -69.07386 32978 ft 487 kts 140°
2026-04-30 18:36 21.86715 -68.99872 32989 ft 489 kts 140°
2026-04-30 18:37 21.79314 -68.92322 32997 ft 489 kts 140°
2026-04-30 18:37 21.74372 -68.87289 33005 ft 489 kts 140°
2026-04-30 18:38 21.69419 -68.82270 32991 ft 489 kts 140°
2026-04-30 18:38 21.64468 -68.77244 32995 ft 490 kts 140°
2026-04-30 18:39 21.59519 -68.72209 32993 ft 490 kts 140°
2026-04-30 18:39 21.54562 -68.67170 32994 ft 490 kts 140°
2026-04-30 18:40 21.49606 -68.62153 33000 ft 490 kts 140°
2026-04-30 18:40 21.44635 -68.57136 33002 ft 490 kts 140°
2026-04-30 18:41 21.39671 -68.52125 32992 ft 490 kts 140°
2026-04-30 18:41 21.34706 -68.47107 32993 ft 490 kts 140°
2026-04-30 18:42 21.29776 -68.42124 32982 ft 490 kts 141°
2026-04-30 18:42 21.22324 -68.34615 32986 ft 490 kts 141°
2026-04-30 18:45 20.94922 -68.07107 32958 ft 492 kts 143°
2026-04-30 18:46 20.89908 -68.02094 32966 ft 494 kts 143°
2026-04-30 18:46 20.85075 -67.96829 32965 ft 502 kts 133°
2026-04-30 18:47 20.80788 -67.90912 32966 ft 503 kts 133°
2026-04-30 18:47 20.76506 -67.84999 32969 ft 503 kts 133°
2026-04-30 18:48 20.72210 -67.79097 32969 ft 503 kts 133°
2026-04-30 18:48 20.67898 -67.73206 32976 ft 503 kts 133°
2026-04-30 18:49 20.63593 -67.67308 32980 ft 503 kts 133°
2026-04-30 18:49 20.59289 -67.61416 32945 ft 503 kts 135°
2026-04-30 18:50 20.54970 -67.55523 32952 ft 505 kts 135°
2026-04-30 18:50 20.50639 -67.49608 32945 ft 506 kts 135°
2026-04-30 18:51 20.46306 -67.43680 32963 ft 507 kts 135°
2026-04-30 18:51 20.41955 -67.37749 32963 ft 508 kts 135°
2026-04-30 18:52 20.37633 -67.31864 32967 ft 508 kts 135°
2026-04-30 18:52 20.33280 -67.25933 32964 ft 508 kts 135°
2026-04-30 18:53 20.28918 -67.20011 32963 ft 508 kts 135°
2026-04-30 18:53 20.24560 -67.14090 32964 ft 508 kts 135°
2026-04-30 18:54 20.20196 -67.08157 32948 ft 508 kts 135°
2026-04-30 18:54 20.15823 -67.02250 32957 ft 508 kts 135°
2026-04-30 18:55 20.11459 -66.96337 32956 ft 508 kts 135°
2026-04-30 18:55 20.05649 -66.88472 32957 ft 508 kts 134°
2026-04-30 18:56 19.99177 -66.79533 32967 ft 513 kts 128°
2026-04-30 18:57 19.94066 -66.69453 32972 ft 517 kts 123°
2026-04-30 18:57 19.90705 -66.62707 32972 ft 517 kts 123°
2026-04-30 18:58 19.85627 -66.52607 32973 ft 517 kts 123°
2026-04-30 18:59 19.80571 -66.42503 32977 ft 516 kts 122°
2026-04-30 19:00 19.73856 -66.29093 32972 ft 516 kts 123°
2026-04-30 19:01 19.67097 -66.15680 32981 ft 515 kts 122°
2026-04-30 19:02 19.62025 -66.05656 32980 ft 514 kts 122°
2026-04-30 19:03 19.55291 -65.92303 32969 ft 513 kts 122°
2026-04-30 19:04 19.48542 -65.78983 32974 ft 513 kts 122°
2026-04-30 19:05 19.41785 -65.65679 32975 ft 513 kts 122°
2026-04-30 19:06 19.35014 -65.52364 32943 ft 515 kts 122°
2026-04-30 19:06 19.29894 -65.42326 32950 ft 517 kts 122°
2026-04-30 19:07 19.24770 -65.32282 32961 ft 517 kts 122°
2026-04-30 19:08 19.17919 -65.18880 32943 ft 518 kts 122°
2026-04-30 19:09 19.12780 -65.08865 32953 ft 519 kts 122°
2026-04-30 19:09 19.09331 -65.02158 32958 ft 520 kts 122°
2026-04-30 19:10 19.02437 -64.88726 32956 ft 520 kts 122°
2026-04-30 19:11 18.97245 -64.78668 32954 ft 520 kts 122°
2026-04-30 19:12 18.93768 -64.71960 32946 ft 521 kts 122°
2026-04-30 19:12 18.90294 -64.65231 32948 ft 522 kts 122°
2026-04-30 19:13 18.86816 -64.58497 32410 ft 524 kts 122°
2026-04-30 19:13 18.83247 -64.51605 30260 ft 537 kts 121°
2026-04-30 19:13 18.81466 -64.48166 29229 ft 531 kts 122°
2026-04-30 19:14 18.79694 -64.44748 27838 ft 530 kts 122°
2026-04-30 19:14 18.77925 -64.41337 26405 ft 529 kts 122°
2026-04-30 19:14 18.76161 -64.37938 25102 ft 527 kts 122°
2026-04-30 19:14 18.74416 -64.34565 24164 ft 518 kts 122°
2026-04-30 19:15 18.72718 -64.31274 23359 ft 505 kts 122°
2026-04-30 19:15 18.69438 -64.24936 21821 ft 478 kts 122°
2026-04-30 19:15 18.67861 -64.21902 21113 ft 465 kts 122°
2026-04-30 19:16 18.66320 -64.18954 20450 ft 453 kts 122°
2026-04-30 19:16 18.64816 -64.16074 19822 ft 446 kts 122°
2026-04-30 19:16 18.61835 -64.10376 18570 ft 442 kts 122°
2026-04-30 19:17 18.60355 -64.07547 17894 ft 440 kts 122°
2026-04-30 19:17 18.57441 -64.01968 16822 ft 429 kts 122°
2026-04-30 19:17 18.56033 -63.99266 16284 ft 424 kts 121°
2026-04-30 19:18 18.53679 -63.94754 15427 ft 415 kts 121°
2026-04-30 19:18 18.51846 -63.91252 14777 ft 409 kts 121°
2026-04-30 19:18 18.50476 -63.88639 14285 ft 405 kts 121°
2026-04-30 19:19 18.49118 -63.86056 13782 ft 402 kts 121°
2026-04-30 19:19 18.47771 -63.83490 13239 ft 398 kts 121°
2026-04-30 19:19 18.45120 -63.78435 12167 ft 391 kts 120°
2026-04-30 19:20 18.43808 -63.75934 11597 ft 389 kts 120°
2026-04-30 19:20 18.42504 -63.73454 11159 ft 383 kts 120°
2026-04-30 19:20 18.40027 -63.68725 10916 ft 354 kts 120°
2026-04-30 19:21 18.38713 -63.66599 10798 ft 340 kts 130°
2026-04-30 19:21 18.35476 -63.63241 10563 ft 315 kts 138°
2026-04-30 19:22 18.32364 -63.60151 10226 ft 303 kts 137°
2026-04-30 19:22 18.27775 -63.55586 9528 ft 303 kts 137°
2026-04-30 19:23 18.23236 -63.51081 8424 ft 296 kts 136°
2026-04-30 19:24 18.20265 -63.48138 7726 ft 291 kts 136°
2026-04-30 19:24 18.18797 -63.46684 7359 ft 289 kts 136°
2026-04-30 19:24 18.15911 -63.43825 6702 ft 283 kts 135°
2026-04-30 19:25 18.11647 -63.39599 5501 ft 281 kts 136°
2026-04-30 19:26 18.08884 -63.36876 4481 ft 270 kts 136°
2026-04-30 19:26 18.06199 -63.34223 3299 ft 264 kts 136°
2026-04-30 19:26 18.04884 -63.32925 3072 ft 259 kts 136°
2026-04-30 19:27 18.02420 -63.30329 2853 ft 235 kts 123°
2026-04-30 19:27 18.01752 -63.27227 2616 ft 213 kts 83°
2026-04-30 19:28 18.01971 -63.25759 2494 ft 192 kts 82°
2026-04-30 19:28 18.02335 -63.23233 2107 ft 163 kts 83°
2026-04-30 19:29 18.02662 -63.20953 1769 ft 150 kts 81°
2026-04-30 19:29 18.02817 -63.19888 1710 ft 148 kts 82°
2026-04-30 19:30 18.03277 -63.16698 1054 ft 146 kts 81°
2026-04-30 19:30 18.03616 -63.14632 652 ft 143 kts 84°
2026-04-30 19:31 18.03865 -63.12543 180 ft 145 kts 84°
2026-04-30 19:31 18.04004 -63.11512 33 ft 137 kts 84°
2026-04-30 19:31 18.04179 -63.10280 27 ft 28 kts 82°
2026-04-30 19:32 18.04207 -63.10085 27 ft 26 kts 81°
2026-04-30 19:32 18.04258 -63.09920 27 ft 22 kts 50°
2026-04-30 19:32 18.04273 -63.09839 27 ft 6 kts 159°
2026-04-30 19:32 18.04233 -63.09886 27 ft 14 kts 254°
2026-04-30 19:33 18.04221 -63.09994 27 ft 14 kts 264°
2026-04-30 19:33 18.04206 -63.10095 27 ft 13 kts 261°
2026-04-30 19:33 18.04192 -63.10187 27 ft 12 kts 261°
2026-04-30 19:33 18.04178 -63.10292 27 ft 16 kts 262°
2026-04-30 19:34 18.04163 -63.10405 28 ft 15 kts 262°
2026-04-30 19:34 18.04149 -63.10518 28 ft 19 kts 263°
2026-04-30 19:34 18.04102 -63.10825 27 ft 23 kts 259°
2026-04-30 19:35 18.04101 -63.10981 28 ft 17 kts 315°
2026-04-30 19:35 18.04166 -63.11044 28 ft 12 kts 278°
2026-04-30 19:35 18.04156 -63.11124 28 ft 11 kts 259°
2026-04-30 19:35 18.04144 -63.11196 28 ft 10 kts 259°
2026-04-30 19:36 18.04135 -63.11263 28 ft 9 kts 264°
2026-04-30 19:36 18.04164 -63.11301 28 ft 6 kts 335°
2026-04-30 19:36 18.04222 -63.11322 29 ft 3 kts 335°
2026-04-30 19:37 18.04231 -63.11334 29 ft 2 kts 308°
2026-04-30 19:37 18.04246 -63.11346 29 ft 3 kts 325°
2026-04-30 19:37 18.04271 -63.11354 29 ft 5 kts 348°
2026-04-30 19:37 18.04311 -63.11361 29 ft 5 kts 351°
2026-04-30 19:38 18.04328 -63.11364 29 ft 0 kts 351°